Wind_Speed
22 22 20 18 18 17 18 19 20 22 24 25 27 27 23 21 21 21 19 19 20 20 20 19 20 22 24 25 24 24 25 25 25 25 24 24 24 25 24 23 23 25 30 35 37 37 38 40 41 41 43 45 44 45 46 48 49 46 41 35 32 32 29 27 25 21 21 23 23 26 28 31 36 36 34 31 29 30 31 31 31 30 29 29 28
21 21 20 19 19 19 19 21 22 24 25 26 27 26 20 16 16 17 18 17 18 19 20 18 18 19 22 24 25 25 25 25 25 25 26 27 27 27 26 26 26 26 28 32 36 36 37 40 42 40 40 42 44 45 46 48 50 50 46 39 34 34 31 29 27 24 23 23 24 27 26 28 36 39 36 34 32 32 32 31 32 32 30 30 29
20 21 20 19 19 20 21 22 24 25 26 27 26 22 17 15 15 16 16 16 17 18 19 19 19 19 22 25 27 28 28 28 28 28 28 29 30 30 29 28 29 29 29 31 33 35 37 39 42 43 41 42 45 46 47 49 51 51 48 42 37 35 33 31 30 27 24 22 23 28 28 27 34 39 36 35 34 33 33 33 34 33 32 31 31
20 20 20 19 19 20 21 23 25 25 27 25 21 17 17 16 16 16 18 20 20 20 20 21 20 20 23 25 26 28 29 30 31 31 30 30 31 32 32 32 31 30 31 32 31 34 38 39 41 43 43 45 45 45 46 49 52 51 48 43 38 36 35 34 32 29 27 23 22 26 29 28 33 37 37 36 35 33 33 34 36 34 34 34 33
18 18 18 18 18 20 22 24 25 26 25 21 17 17 18 17 16 17 20 23 24 23 23 23 23 24 26 26 27 29 30 31 32 32 32 32 32 33 34 36 35 33 32 33 33 33 36 40 42 42 42 46 48 46 46 47 49 50 48 44 38 35 36 36 34 31 28 26 25 26 28 30 32 36 38 37 35 34 34 35 36 36 36 37 34
16 15 15 16 17 20 22 23 25 24 20 17 16 17 17 18 19 20 22 25 25 25 24 23 25 28 30 30 31 31 32 33 34 35 36 35 34 34 33 35 38 38 35 33 34 35 35 38 42 42 41 45 49 48 46 45 45 46 48 47 40 35 34 36 37 34 30 28 28 30 30 31 32 35 38 37 35 35 36 37 37 37 37 36 34
12 12 13 15 18 20 21 22 23 20 16 15 16 17 18 19 21 22 22 23 24 24 24 24 25 28 31 32 32 32 33 34 35 36 37 36 36 36 35 34 36 38 37 35 35 36 36 36 40 43 44 45 48 48 47 45 44 44 47 49 44 38 36 36 36 35 32 30 31 32 30 30 31 32 35 36 35 35 37 38 38 38 37 36 34
9 10 13 16 18 19 20 20 19 16 14 15 16 17 19 20 21 21 20 20 21 23 24 25 26 27 30 33 33 33 33 33 34 35 36 37 36 36 36 35 35 35 36 37 36 36 37 37 37 43 48 48 47 47 48 47 44 45 47 49 47 43 41 39 35 33 32 32 32 32 31 31 32 33 35 37 37 37 37 37 38 39 39 37 35
7 10 13 15 17 18 18 17 15 13 13 15 16 18 19 20 20 20 21 21 21 23 25 25 26 28 30 31 32 32 33 34 36 37 37 38 37 36 36 36 35 34 33 36 38 37 37 37 36 40 47 50 47 45 48 48 46 47 48 50 50 46 44 42 36 32 32 33 34 35 33 34 35 36 38 38 37 38 38 38 39 39 39 37 35
8 10 12 14 16 18 16 14 13 13 15 16 17 18 19 20 20 20 21 22 22 24 25 25 26 29 30 30 31 32 34 36 38 39 39 39 37 35 34 33 33 34 33 34 38 38 38 38 37 39 46 51 49 46 48 49 48 49 51 52 52 49 46 42 38 35 32 33 37 38 35 36 37 37 37 36 35 37 39 40 41 40 39 38 37
9 11 13 15 16 16 14 12 12 13 15 17 17 18 18 19 20 21 21 22 23 24 25 26 27 28 29 30 31 32 34 37 39 39 40 41 40 37 35 32 31 32 33 34 36 38 37 37 37 38 43 51 52 50 49 49 48 49 52 53 53 51 48 43 41 40 35 32 38 40 37 37 37 36 36 35 36 38 40 41 42 42 42 40 39
9 12 13 15 15 13 11 11 12 13 15 16 16 17 19 20 20 21 22 23 24 24 25 26 27 27 27 29 29 30 33 36 38 39 39 40 41 40 39 37 34 32 32 33 35 37 36 35 36 37 40 46 52 53 51 50 48 48 50 53 53 53 51 45 42 43 40 36 38 39 37 38 38 38 37 36 38 39 40 41 43 43 42 41 39
10 12 14 14 13 11 10 11 12 13 14 15 16 18 20 20 21 22 23 23 24 26 27 28 28 28 28 29 29 29 30 32 35 38 39 39 40 40 40 41 40 37 35 35 35 36 36 35 35 37 39 42 47 52 52 50 50 49 49 52 53 53 53 49 45 44 43 43 42 40 38 39 39 38 37 36 37 39 41 43 44 43 42 40 40
10 12 13 13 11 9 10 11 12 13 14 15 17 19 20 21 22 23 24 25 26 29 31 32 33 32 29 29 29 30 31 33 34 36 37 38 39 39 41 42 42 40 39 39 38 36 36 36 35 35 38 40 42 46 49 49 50 50 49 50 52 53 54 54 50 45 43 42 42 40 38 39 40 38 37 37 38 40 41 43 44 44 43 42 42
8 11 13 12 10 9 10 12 13 13 14 16 19 21 21 22 23 23 24 26 29 32 34 35 35 33 30 28 29 30 32 34 36 37 37 37 37 38 40 43 43 41 39 40 43 40 36 36 37 36 37 39 41 43 46 47 49 49 49 49 51 52 53 55 54 49 45 42 41 39 36 37 38 37 36 38 40 41 41 42 43 42 42 41 40
8 10 11 10 9 9 11 13 14 14 16 18 20 21 22 23 23 23 24 26 28 31 34 34 32 32 30 29 29 30 30 32 35 38 38 37 37 37 39 41 41 42 40 39 43 45 41 37 37 38 38 40 42 43 45 45 45 47 49 50 50 50 51 53 54 52 49 46 42 38 35 35 34 33 34 37 39 39 39 40 41 39 38 38 36
7 8 9 9 9 10 12 13 15 15 17 19 21 22 24 25 24 23 23 24 26 28 29 29 28 29 30 30 31 32 32 32 34 37 38 37 37 37 38 39 39 41 43 41 40 44 46 42 37 38 39 39 41 44 45 44 43 45 47 48 47 47 48 50 51 51 50 46 40 36 34 32 31 32 33 34 35 36 37 40 41 38 37 37 33
6 7 8 9 9 10 12 14 15 16 18 20 21 23 26 26 24 21 21 24 27 28 27 26 27 28 29 32 34 35 36 36 36 37 38 36 37 38 38 38 38 38 43 44 40 41 46 46 40 38 38 37 39 44 46 45 45 47 48 47 46 45 45 46 47 47 45 41 37 35 33 31 31 33 33 34 33 33 35 37 38 37 38 35 30
6 7 8 10 9 10 12 14 16 17 19 20 21 24 28 27 23 23 24 26 28 27 25 25 27 29 31 33 34 34 37 38 35 36 38 36 36 38 38 38 39 38 39 40 38 38 41 43 42 41 38 36 39 43 44 44 46 50 49 47 46 47 46 45 46 45 42 38 36 34 32 33 35 35 34 33 31 30 32 34 34 35 33 30 29
7 8 9 9 9 10 12 14 16 17 19 20 21 25 29 28 25 25 28 27 26 25 25 25 28 33 32 30 29 31 34 36 32 32 36 35 36 38 38 38 39 39 37 36 36 35 36 38 40 42 41 39 40 42 41 42 45 49 50 47 45 46 47 46 45 44 42 39 35 33 34 35 35 34 33 31 29 29 31 31 30 29 28 29 30
8 8 8 8 9 10 12 14 15 16 17 18 20 25 31 28 25 26 27 25 24 25 26 26 29 33 30 25 27 30 33 33 30 30 33 33 34 37 38 39 39 37 36 35 34 33 34 37 39 41 43 43 42 39 37 39 42 45 47 46 44 43 44 45 45 43 40 38 36 34 35 34 32 31 31 30 29 30 30 29 28 28 28 28 28
7 7 7 7 9 10 11 13 14 15 17 18 20 26 30 27 24 26 25 24 25 28 29 29 31 32 28 24 27 30 30 31 30 29 31 32 32 34 38 38 37 36 35 33 32 34 35 37 40 39 40 43 44 40 35 34 36 40 43 42 40 40 41 43 44 42 39 37 35 34 34 34 32 31 31 31 32 32 30 30 31 31 30 28 28
6 5 6 8 9 10 11 13 14 15 17 18 21 26 28 24 23 25 24 24 27 31 32 32 31 31 29 26 28 30 28 28 28 27 28 30 30 32 36 36 35 36 36 33 32 35 34 35 39 39 37 39 42 39 36 34 35 37 39 39 38 38 39 41 42 40 37 35 34 33 34 34 32 31 32 33 32 31 31 31 32 31 29 29 29
5 5 7 8 9 10 11 12 13 15 17 18 21 26 27 23 23 24 23 23 27 29 31 31 31 32 31 30 31 31 27 25 26 26 26 26 26 29 33 34 34 36 36 33 33 34 32 32 37 40 38 37 37 36 35 35 35 35 37 37 38 38 39 40 40 37 34 33 34 34 34 34 33 33 35 35 32 31 33 33 31 29 27 27 26
5 6 7 8 9 10 11 12 13 15 16 18 20 25 26 22 21 23 23 23 24 25 28 32 33 32 31 30 30 30 27 24 24 24 22 21 23 27 31 32 31 32 32 32 33 34 31 31 35 38 36 35 35 34 34 35 35 35 36 38 39 39 39 39 39 37 33 33 35 36 35 35 35 36 37 37 35 35 35 33 30 28 26 24 22
5 6 8 8 9 10 11 12 13 14 16 17 19 24 25 22 21 24 25 25 24 26 30 34 35 33 32 30 28 28 26 23 21 20 18 17 17 22 28 30 29 28 29 31 32 32 31 31 33 34 33 33 33 33 33 33 34 35 36 38 39 39 40 41 41 38 35 35 36 37 37 38 38 38 37 35 34 33 32 30 28 26 24 22 21
5 6 8 8 9 10 11 13 14 14 15 16 17 22 25 23 22 24 27 28 29 30 33 35 35 35 34 32 30 28 25 21 19 17 15 15 14 17 26 31 30 30 30 31 32 32 30 28 29 32 33 32 32 32 32 33 34 36 38 39 39 40 41 42 40 37 35 35 37 38 39 40 39 38 36 34 33 32 29 29 28 27 25 22 21
8 7 8 8 9 10 11 13 14 14 15 16 16 20 26 24 22 23 26 27 29 31 32 33 33 34 33 32 30 28 24 18 16 13 11 13 15 18 24 29 31 31 31 31 32 33 31 28 28 31 31 31 32 32 33 34 36 38 40 40 40 41 42 41 39 37 36 37 37 38 39 39 38 38 37 36 34 32 30 29 28 26 25 22 21
9 7 7 8 9 10 10 12 13 14 15 15 14 18 25 26 23 22 23 24 24 26 28 29 29 30 30 29 28 27 23 18 13 12 11 14 18 22 25 27 29 28 28 28 30 32 30 28 28 29 30 32 34 35 36 37 38 39 40 40 41 42 43 41 39 38 38 37 37 38 39 40 39 39 38 37 35 33 31 29 27 26 24 22 21
6 6 7 8 10 10 9 11 13 13 14 15 14 17 23 26 25 23 22 21 21 22 23 24 25 27 27 25 23 23 22 19 14 11 12 14 19 24 26 27 27 26 26 26 28 29 29 28 29 30 32 35 36 38 39 40 41 41 41 41 42 43 41 39 38 38 38 38 38 39 40 41 41 40 38 37 35 33 30 28 26 26 25 24 23
5 6 7 8 12 12 9 11 13 13 13 14 15 16 19 23 25 24 21 20 19 20 21 21 22 24 24 22 20 19 19 17 13 10 11 13 17 22 25 26 27 27 27 26 27 27 27 28 31 33 35 38 40 41 42 43 43 44 43 43 43 43 42 41 41 40 41 42 42 42 41 41 41 40 38 36 35 33 30 28 27 27 26 24 23
6 6 6 7 10 11 9 10 12 13 13 14 14 15 18 21 24 26 24 20 18 19 21 21 20 20 21 20 19 19 17 15 11 7 6 9 14 18 22 24 25 26 25 25 25 25 26 29 33 36 38 40 42 43 44 44 45 46 46 45 45 45 44 44 42 42 43 44 42 41 42 42 40 38 36 35 34 33 31 30 29 28 26 24 23
5 5 6 7 8 9 10 11 12 13 14 14 13 14 17 18 20 25 27 23 18 17 19 20 19 18 19 18 17 16 15 13 10 5 3 6 11 15 18 21 24 26 26 24 24 26 28 31 34 36 39 41 42 44 45 45 46 47 47 46 46 46 45 43 41 41 41 41 39 40 42 41 38 36 35 34 34 34 33 32 30 28 26 25 23
6 6 8 9 7 8 10 11 12 13 14 14 13 13 15 16 17 23 28 27 22 19 18 19 19 18 18 17 16 14 12 9 6 2 5 9 12 16 20 23 25 26 26 25 25 28 32 34 35 37 40 41 43 45 45 46 46 46 45 45 45 45 43 40 38 38 39 39 40 40 40 37 35 35 36 35 35 35 33 31 30 28 26 25 23
6 6 11 13 9 8 9 11 13 14 14 14 14 14 15 15 15 21 27 28 25 23 21 19 19 19 17 15 14 14 12 9 6 7 11 15 18 19 22 25 25 25 25 26 28 31 34 35 36 39 41 43 45 46 45 46 46 45 44 45 45 44 42 39 37 37 38 39 39 38 36 34 34 36 37 37 36 35 33 32 29 27 25 23 21
4 3 7 10 9 7 9 11 14 15 17 17 16 15 16 15 14 19 26 27 24 23 23 20 18 17 16 14 13 12 11 10 7 6 10 13 16 19 21 22 23 23 25 27 31 33 34 35 37 40 42 43 45 46 44 43 42 42 44 45 44 42 40 39 39 39 38 37 36 35 34 35 35 36 37 36 35 34 33 31 29 26 24 22 21
3 2 3 6 7 7 9 11 14 17 19 19 16 14 15 14 13 16 24 27 26 24 24 23 20 18 18 17 14 12 11 9 7 6 7 8 11 15 19 21 22 24 27 29 32 34 34 35 37 40 41 42 44 44 43 43 42 43 43 43 42 41 40 39 39 38 37 36 35 34 35 36 36 36 35 35 34 33 31 29 27 26 24 22 20
3 2 2 5 7 8 8 9 13 16 17 15 14 14 15 14 13 14 20 25 27 26 25 25 25 23 22 22 20 15 11 9 9 10 10 10 10 14 18 20 22 24 27 29 31 33 35 36 37 38 39 40 42 42 43 44 44 43 42 42 42 42 41 38 36 36 35 35 36 36 36 36 35 34 32 32 32 31 29 27 26 24 23 21 20
5 2 2 5 7 8 8 9 11 13 13 12 13 14 14 13 12 13 16 20 25 26 25 25 26 27 25 24 22 21 18 17 17 17 18 17 17 17 19 21 22 24 25 27 29 31 33 34 36 37 37 39 40 41 42 44 44 43 43 43 42 41 39 38 37 37 36 37 37 37 36 34 32 30 29 29 29 28 27 26 25 24 23 21 19
5 6 5 6 7 8 8 8 9 10 11 12 12 12 13 14 13 13 13 15 19 24 26 25 25 26 26 25 24 23 24 24 24 22 22 22 21 21 21 23 24 25 26 26 28 29 31 32 33 35 38 39 41 42 44 44 45 43 42 41 41 41 40 39 39 39 39 38 37 35 33 32 30 29 28 28 27 27 26 25 24 22 21 19 18
4 6 7 6 6 7 7 7 7 8 9 11 11 10 12 14 13 12 12 12 14 18 23 25 25 24 24 25 25 25 25 24 24 22 22 23 23 23 23 24 24 25 26 27 28 30 32 34 35 37 39 40 42 43 44 45 46 45 43 41 41 40 40 39 39 38 37 35 33 32 30 29 28 28 27 27 26 25 25 24 22 21 19 18 17
6 7 7 4 3 5 7 6 6 7 7 9 10 11 13 13 12 12 13 13 12 13 16 21 23 24 23 23 24 25 26 26 24 23 23 22 22 23 23 23 23 23 24 25 26 28 31 33 35 37 38 39 40 41 43 44 45 45 43 42 41 41 40 39 37 35 33 32 31 30 28 27 26 26 26 26 25 24 23 22 21 20 18 17 16
10 9 7 4 2 4 5 4 3 4 5 5 8 11 14 13 11 11 12 13 12 11 11 14 18 21 23 23 23 24 26 28 28 27 26 25 23 23 22 21 22 22 23 24 25 26 29 31 33 34 36 37 38 39 40 40 41 41 41 41 40 40 38 37 34 32 31 30 29 27 26 25 25 24 24 24 23 23 22 21 20 19 17 16 15
7 7 6 4 3 3 2 1 1 2 2 2 6 10 13 12 11 11 11 12 13 12 11 12 13 16 19 21 23 23 24 26 28 29 29 28 27 26 24 23 22 22 23 24 25 27 29 31 32 32 33 34 34 34 35 35 36 38 39 39 38 37 35 33 32 30 28 27 26 24 23 23 23 23 22 22 21 21 21 20 19 18 17 16 15
1 2 4 5 5 3 2 1 2 3 2 2 4 7 9 10 10 11 11 11 11 12 13 13 13 13 13 16 18 20 22 23 25 26 27 28 29 29 28 26 25 24 23 23 23 24 26 28 29 30 31 31 31 32 33 34 35 36 36 36 35 34 33 32 31 29 27 26 24 24 23 22 22 22 21 20 20 20 19 19 18 17 16 15 15
5 5 4 3 3 2 2 1 2 2 2 2 2 4 6 8 9 10 11 11 11 11 12 14 14 14 13 13 14 15 17 19 21 23 24 25 26 27 27 27 27 26 25 24 23 23 24 25 26 27 29 30 30 31 33 34 35 35 34 32 32 32 31 31 30 28 26 24 23 23 23 22 22 21 20 20 20 19 18 18 17 16 15 15 13
8 9 8 6 4 3 3 2 2 3 3 4 4 4 5 6 7 9 10 12 12 11 11 12 14 14 15 15 14 14 14 15 16 18 20 21 22 23 24 24 25 25 25 24 24 24 24 25 26 26 28 29 29 30 31 31 32 32 31 30 30 29 28 27 25 24 23 22 22 22 22 21 20 20 20 20 19 18 18 17 16 15 14 14 12
10 10 10 9 8 6 4 2 2 3 5 6 6 6 6 5 6 7 8 9 10 10 10 11 11 13 14 15 15 15 15 14 14 14 15 16 17 18 19 21 21 22 22 23 23 23 23 24 24 25 25 26 27 28 28 29 29 29 28 27 26 25 23 22 22 22 22 21 20 20 20 20 20 20 19 19 18 18 17 16 15 14 13 13 12
13 11 11 11 11 9 8 5 4 5 7 7 7 7 6 5 5 6 7 8 8 9 10 10 10 11 12 14 15 15 15 15 14 14 14 13 14 14 15 17 18 19 19 20 20 20 21 21 22 22 23 23 24 25 26 26 26 26 26 25 24 22 21 21 21 21 21 20 20 20 20 19 19 19 18 18 18 17 16 15 14 13 13 13 12
15 14 13 12 12 12 11 8 4 7 10 9 7 6 6 5 5 5 6 7 8 8 9 10 10 10 10 12 13 14 14 14 14 13 13 12 12 13 13 14 15 16 16 17 18 18 18 19 19 19 20 21 22 22 23 23 24 24 24 23 22 21 21 21 21 21 21 21 21 20 19 18 18 18 18 17 16 16 15 14 13 13 12 12 12
14 15 15 14 13 13 12 11 7 6 10 10 9 8 6 4 4 3 4 5 6 6 7 8 9 9 10 11 12 12 13 13 13 13 12 11 11 12 12 13 14 14 15 15 16 16 16 17 17 17 17 18 19 20 21 21 22 22 22 22 21 21 21 21 21 21 21 22 22 21 20 19 18 18 17 16 15 15 14 13 13 12 12 12 11
Wind_Direction
239 243 248 255 263 272 281 289 294 298 301 303 304 304 301 299 299 297 294 293 292 289 285 281 278 278 280 280 278 277 275 271 267 259 250 244 243 244 243 240 239 240 239 237 237 240 241 240 238 238 236 235 235 235 235 234 232 226 225 228 228 225 220 217 225 226 213 205 200 211 224 220 213 214 217 218 219 222 225 223 219 219 220 221 223
242 246 252 259 267 276 284 290 295 299 302 304 304 301 295 288 288 289 287 286 286 285 283 278 275 275 277 277 276 275 273 271 268 263 256 248 240 238 241 243 240 238 238 239 238 239 241 241 240 237 235 235 237 237 235 234 232 229 229 230 228 226 223 217 220 223 212 201 196 206 219 217 213 214 216 219 222 225 228 223 217 218 220 222 225
243 248 255 262 270 279 286 292 296 299 302 303 301 297 289 284 283 281 281 281 280 280 281 278 274 273 273 274 275 275 272 271 269 266 262 256 247 240 238 240 242 240 238 240 240 238 238 241 241 238 235 235 238 238 235 233 232 231 230 229 225 224 223 218 219 219 210 198 197 210 218 213 211 214 215 219 223 226 228 221 214 216 220 223 226
243 249 257 264 273 281 288 293 297 300 301 299 294 288 285 284 282 279 278 280 280 279 280 280 276 273 273 273 273 272 272 272 272 269 265 261 257 249 241 236 238 240 240 239 238 237 238 238 239 241 239 238 239 237 233 233 233 231 229 228 224 223 223 219 217 218 214 200 194 209 219 215 213 215 216 217 220 224 227 220 213 214 219 222 225
242 248 258 269 278 285 290 295 298 299 298 294 287 285 286 285 282 279 280 282 282 280 279 280 278 276 275 275 273 272 271 270 269 267 265 264 261 256 248 239 236 238 240 240 236 237 239 237 236 239 240 240 239 237 234 234 232 229 228 227 221 218 220 218 214 216 217 203 192 203 215 215 213 214 217 219 217 217 220 220 218 219 220 222 224
240 249 263 275 284 290 294 297 298 296 294 289 286 287 286 285 283 282 283 283 281 279 278 277 277 279 281 279 276 274 273 271 268 266 265 264 262 260 254 244 238 236 236 238 238 237 239 239 236 236 238 239 238 236 235 233 228 226 226 224 219 214 217 218 214 213 213 204 201 209 213 214 215 214 217 220 219 218 218 217 219 222 223 224 225
240 252 269 281 289 294 296 298 297 293 290 288 288 288 286 285 285 284 284 282 279 278 278 276 276 279 282 282 277 275 273 271 269 267 265 263 261 260 256 249 242 238 235 235 238 239 238 239 237 234 235 237 236 235 235 232 228 226 227 224 219 215 216 217 214 213 209 202 206 216 217 216 219 218 218 219 219 220 221 220 220 223 225 226 226
243 264 281 290 295 298 299 298 295 291 289 289 289 287 286 287 287 287 285 282 280 280 279 279 278 278 281 282 280 275 272 269 267 265 264 262 261 259 257 253 246 241 238 235 237 240 239 239 238 234 232 234 236 235 233 232 229 227 227 226 221 216 215 216 214 211 207 200 204 213 216 217 217 215 213 213 214 216 221 225 227 228 227 226 226
258 281 292 297 301 303 301 298 293 290 290 289 290 290 290 291 290 289 287 284 283 284 283 281 278 278 280 281 279 274 270 267 266 265 263 261 260 258 256 254 248 242 238 237 236 238 239 238 237 234 230 230 235 237 234 232 230 227 227 224 220 217 217 218 215 209 202 201 205 210 211 214 216 214 213 214 217 221 223 225 226 228 229 226 226
276 292 298 300 304 305 302 296 292 289 287 290 295 296 295 294 293 292 290 288 287 287 286 283 279 279 280 279 278 275 271 268 266 265 263 261 259 255 251 250 248 242 238 236 235 236 237 237 237 236 230 228 232 238 236 234 233 231 229 225 221 220 219 219 216 210 202 202 209 212 211 213 217 221 221 221 222 224 225 224 223 225 226 225 226
289 298 302 304 307 306 300 294 290 288 289 296 299 299 298 298 297 295 294 292 292 290 287 284 282 280 278 277 276 274 271 270 268 265 262 261 258 254 247 244 244 243 239 236 234 234 235 236 236 236 233 228 229 234 238 237 235 234 231 228 225 223 220 218 216 214 208 204 212 217 218 221 225 228 226 224 223 223 224 225 224 224 225 224 226
295 303 307 308 309 304 296 293 292 292 295 300 302 302 303 302 300 298 297 296 295 292 288 285 282 280 277 275 273 271 270 271 269 265 261 259 257 255 250 244 241 241 239 236 234 234 233 233 233 234 234 230 227 230 236 237 237 237 234 230 228 225 223 220 218 218 213 209 215 221 224 228 231 230 227 225 225 225 224 224 224 225 226 225 226
301 308 311 311 308 300 295 295 294 295 298 302 306 307 307 305 304 302 300 298 296 293 290 288 286 282 279 275 272 269 268 267 267 265 262 258 256 254 252 247 242 239 236 232 232 233 232 231 232 232 234 233 228 228 232 235 236 237 236 232 229 227 226 224 223 225 221 219 224 229 231 234 236 237 236 233 231 229 225 224 225 226 225 224 227
304 310 312 311 305 298 297 297 295 296 301 304 309 310 310 310 309 307 304 302 301 300 298 296 295 290 282 277 273 269 266 265 264 264 262 259 257 254 251 248 244 240 236 230 226 229 231 231 230 231 233 233 229 227 229 232 233 234 236 234 230 229 228 226 224 227 228 229 234 237 239 241 242 242 241 237 236 236 232 229 227 225 223 224 229
303 307 311 309 303 299 298 296 296 300 303 306 309 311 313 314 312 309 307 305 305 306 305 302 299 293 285 279 276 271 269 267 265 262 260 257 256 252 250 249 245 240 237 233 226 223 226 230 230 230 232 231 228 226 227 229 231 232 233 233 229 225 224 223 223 226 229 233 238 240 242 245 245 243 240 238 238 239 238 235 231 226 224 226 227
301 303 308 306 302 300 298 297 298 301 304 307 310 312 314 316 314 310 307 306 306 306 305 301 296 291 285 280 275 272 271 269 267 264 260 256 254 251 249 248 245 238 235 235 229 223 220 226 230 230 231 231 228 227 227 227 228 230 230 229 225 220 219 222 224 226 228 231 235 237 239 242 244 244 243 242 241 240 237 232 229 227 226 224 222
301 301 303 301 300 299 298 299 299 301 306 309 310 313 317 317 316 311 307 305 304 303 301 297 291 287 284 278 275 273 273 274 273 268 262 256 252 249 246 244 242 237 234 234 234 226 220 221 227 230 230 230 227 227 227 224 224 227 228 228 225 219 219 222 222 222 225 229 232 235 235 236 240 243 242 242 244 245 238 229 225 225 223 220 217
298 299 297 297 299 299 299 300 301 303 307 309 311 317 321 320 316 312 309 307 306 303 299 293 288 285 282 279 277 275 275 280 279 270 263 256 249 245 243 240 238 236 234 235 235 231 222 218 221 226 228 228 227 228 227 223 222 225 226 227 226 220 217 218 217 217 221 224 226 228 230 234 238 239 238 237 241 244 239 232 228 224 219 217 216
298 302 299 300 299 301 303 302 302 303 307 311 316 320 322 320 317 315 315 312 308 304 299 292 289 288 286 282 279 276 278 284 281 267 259 253 246 242 239 236 235 234 233 233 232 231 226 220 220 223 224 225 228 228 226 222 223 226 227 228 228 225 222 221 220 220 221 221 221 223 228 231 232 233 234 235 236 236 233 231 229 224 218 216 217
310 311 307 306 305 307 309 306 303 303 306 312 318 322 323 322 320 320 321 317 309 304 301 296 295 296 293 285 280 279 283 288 280 263 254 248 241 239 237 234 233 232 230 229 228 228 226 223 222 223 222 221 226 227 225 224 226 227 227 228 229 228 225 224 224 222 221 221 221 224 228 229 227 227 227 226 224 222 221 220 219 217 212 211 213
321 320 315 309 310 315 315 312 308 305 309 315 319 322 324 325 323 323 322 317 311 309 307 305 303 302 297 287 284 286 289 291 280 261 254 250 240 235 233 232 230 229 226 226 226 226 224 220 220 223 222 221 222 223 223 225 228 229 228 229 231 231 228 227 225 221 218 220 223 224 227 226 223 220 217 213 210 209 209 206 201 198 199 204 208
328 325 321 314 317 321 319 317 314 312 315 319 319 322 325 326 325 325 321 317 317 319 320 318 313 309 302 292 292 294 294 294 285 264 254 250 241 233 231 229 228 225 223 223 224 225 222 217 218 222 222 219 219 220 221 223 227 229 229 229 230 230 229 227 223 218 214 217 220 221 222 220 216 212 208 203 201 199 197 196 195 193 194 199 204
335 325 322 320 324 325 322 320 318 318 321 321 320 325 328 326 325 326 323 322 323 326 329 326 319 315 310 303 303 304 298 292 286 270 254 245 237 229 227 225 224 223 223 223 225 225 220 216 219 221 218 215 216 219 221 223 225 226 227 228 228 228 227 223 218 214 212 214 216 216 216 214 210 206 201 197 195 192 189 190 193 194 197 199 204
350 334 327 326 326 326 324 322 320 321 324 322 324 331 332 327 326 328 328 328 329 329 331 331 326 322 317 312 311 312 305 292 283 272 257 242 229 222 221 221 222 223 224 223 223 221 216 216 220 220 219 219 218 218 219 220 222 224 225 225 224 224 225 220 214 212 213 213 211 209 206 203 202 199 194 190 188 187 187 187 188 191 197 202 207
357 339 331 328 326 325 325 324 324 324 324 322 328 337 336 329 329 333 334 334 333 332 334 335 333 328 322 317 315 314 310 299 286 272 255 235 223 220 221 222 221 220 220 219 219 218 218 221 224 223 222 222 220 218 218 220 222 224 224 223 223 223 224 219 212 211 212 210 207 204 199 195 196 194 189 184 183 184 185 185 187 191 194 197 199
3 347 340 333 327 326 325 326 328 328 326 324 332 340 339 332 331 338 342 342 341 340 340 340 338 333 328 323 320 316 311 303 291 274 252 235 225 215 211 211 208 206 210 214 215 215 218 225 227 222 219 219 219 218 219 220 220 220 220 222 222 221 221 218 212 208 206 204 202 200 195 190 188 187 184 180 179 179 181 183 185 186 187 187 186
14 353 346 338 331 328 327 328 332 332 327 326 333 343 344 338 332 339 348 350 347 345 346 345 342 338 333 327 323 319 312 303 294 278 250 238 236 211 194 195 198 199 205 211 213 215 219 223 222 217 214 215 216 216 218 217 214 212 212 214 215 214 213 213 209 204 201 200 199 196 190 184 178 175 175 175 174 175 178 183 182 178 175 177 179
31 3 350 344 337 332 329 329 332 332 330 329 333 343 350 347 337 338 350 355 351 348 350 349 345 340 335 329 325 322 315 303 291 274 239 221 227 215 196 193 197 201 205 210 214 218 220 217 213 211 211 210 208 206 207 208 206 206 206 205 204 204 202 200 197 195 196 198 197 191 182 176 172 169 169 171 172 172 175 178 177 172 169 171 172
37 11 357 352 341 336 334 334 333 330 330 331 332 342 354 356 347 341 347 355 355 351 351 350 344 339 337 333 328 325 320 308 287 262 231 203 203 209 207 203 202 203 208 215 217 215 211 208 205 204 204 203 199 196 195 196 195 196 198 198 197 196 194 191 190 191 191 192 191 185 176 171 169 168 169 169 168 168 170 171 170 167 165 165 165
40 20 13 8 359 352 343 339 338 333 330 332 331 338 352 360 357 350 347 352 356 356 355 352 345 340 340 338 333 327 321 313 296 266 244 217 202 203 209 211 209 206 209 216 216 208 201 199 199 199 198 197 194 191 190 190 189 187 188 189 189 188 186 186 187 187 185 183 182 179 175 172 169 167 168 167 164 163 164 165 165 164 162 161 160
50 34 24 16 13 10 355 342 343 339 333 333 334 336 346 355 360 360 354 350 354 360 2 359 351 345 345 344 338 333 327 317 303 276 254 236 215 206 207 212 214 212 211 209 206 201 198 195 194 194 194 193 190 188 187 187 185 183 181 181 181 181 180 181 182 181 178 175 174 173 172 171 167 165 166 165 163 161 159 159 160 159 158 159 157
64 43 27 14 10 6 355 346 347 345 339 336 337 339 344 350 356 1 1 357 359 5 7 6 1 354 352 351 348 344 341 333 319 295 257 242 230 216 208 207 207 207 207 204 198 195 196 196 193 190 189 188 186 186 185 184 183 181 179 177 176 176 177 178 178 177 173 171 170 170 169 167 165 164 165 165 162 158 155 155 156 155 154 153 150
77 47 26 16 2 357 356 351 348 348 346 343 340 342 348 351 353 358 1 2 5 11 12 12 12 5 360 2 2 356 351 347 338 324 249 219 219 212 202 195 190 189 191 196 195 192 190 190 188 185 185 185 184 182 180 180 179 178 177 176 175 174 173 172 172 171 169 168 169 169 167 165 165 164 164 161 158 155 153 154 154 152 150 149 147
83 56 37 29 10 357 358 354 351 352 351 348 343 342 348 353 353 358 3 5 7 11 12 13 18 18 10 9 14 13 8 10 16 59 138 156 171 180 182 180 177 177 182 189 192 189 185 183 181 180 181 182 181 178 175 174 174 174 173 173 171 169 166 166 167 168 167 165 165 165 164 164 165 163 160 157 155 153 152 151 150 148 148 147 145
82 56 38 33 20 1 358 359 0 360 356 355 352 349 354 357 356 1 9 11 12 16 17 16 20 23 19 17 25 29 26 30 59 112 135 142 149 160 167 169 168 171 177 181 182 182 182 181 179 179 179 178 176 175 173 171 171 171 170 167 164 162 160 161 164 165 163 161 161 160 160 161 161 159 157 156 155 153 150 148 147 146 145 144 142
93 69 29 24 17 0 358 4 6 5 7 10 5 356 357 360 356 2 12 16 17 21 23 23 25 28 27 27 33 40 41 42 55 100 129 141 151 158 158 156 157 162 167 170 171 172 174 175 174 173 173 172 170 170 170 168 166 165 163 160 157 155 156 158 159 159 158 157 157 157 157 158 158 157 157 155 153 151 149 147 146 144 143 143 142
128 135 26 17 11 359 357 2 5 8 13 15 9 359 358 358 355 1 11 17 21 24 26 27 29 32 36 40 43 46 53 58 63 82 107 132 158 162 151 143 145 151 155 159 162 163 164 165 165 166 167 167 166 165 165 163 161 160 157 154 151 151 153 155 156 155 154 153 153 154 156 156 156 157 157 153 150 149 147 145 144 143 143 143 142
178 160 36 17 8 359 350 349 358 6 9 8 6 6 5 1 356 0 9 16 22 26 28 31 35 38 41 48 54 57 63 73 81 90 101 115 134 144 141 138 142 146 148 152 156 158 157 158 159 161 163 164 163 163 161 158 156 154 152 150 149 150 150 151 150 150 150 151 151 152 153 154 154 155 154 151 147 145 144 144 144 143 143 143 142
222 245 346 4 1 357 348 342 348 359 2 0 2 8 9 6 3 3 6 14 21 26 29 34 39 42 45 49 54 59 63 67 73 83 95 102 109 119 128 132 135 138 141 145 150 152 153 154 155 156 157 157 157 156 153 150 148 148 149 149 148 147 146 146 146 147 149 150 150 150 151 151 151 150 148 146 144 143 143 144 144 144 145 145 146
248 259 287 319 329 331 334 337 339 345 355 360 1 4 10 15 15 10 6 10 19 26 31 36 39 44 48 51 54 58 62 64 67 76 87 94 99 107 115 120 124 129 133 137 142 145 148 150 152 152 150 148 146 145 144 143 143 144 146 146 144 143 144 146 147 148 149 149 149 149 150 149 148 147 145 144 144 144 144 145 146 146 146 145 145
268 268 271 284 305 310 312 320 323 329 348 4 7 5 9 16 19 14 11 12 15 22 31 39 42 45 50 55 58 62 65 67 69 74 81 87 92 99 105 109 115 120 124 130 135 138 140 142 143 143 142 141 141 142 143 144 143 142 142 142 143 143 144 145 146 146 147 148 149 149 148 148 148 147 146 145 145 146 146 145 145 144 144 144 144
265 265 261 253 280 305 303 303 307 317 340 1 9 11 15 19 20 18 17 17 17 18 27 38 45 49 51 55 60 65 68 69 71 75 80 84 87 93 99 106 112 116 119 124 128 132 135 136 137 138 139 140 141 142 142 142 141 141 142 144 145 144 143 143 145 147 148 149 150 150 149 148 148 147 147 147 147 147 146 144 144 144 144 144 143
251 246 239 221 238 291 296 295 301 308 321 347 6 17 23 23 21 20 19 19 21 21 23 32 44 51 54 55 58 64 68 70 71 73 77 81 85 89 94 101 108 114 119 122 125 129 132 133 132 133 135 136 137 137 138 139 140 142 144 145 146 145 145 145 146 148 149 149 149 149 149 149 149 149 149 149 148 146 145 144 143 143 144 143 143
243 234 232 236 258 279 280 266 251 270 287 1 18 23 27 25 19 19 22 23 24 26 26 29 39 50 55 57 59 62 67 71 72 73 74 77 79 83 88 95 103 113 119 120 122 126 129 129 128 128 128 130 132 134 136 138 142 144 145 146 145 145 144 144 144 145 145 146 147 149 150 151 151 151 150 149 147 145 144 143 144 144 144 143 143
332 268 266 269 270 265 247 157 153 170 161 80 33 23 25 27 23 21 23 24 25 28 30 32 37 44 52 58 62 65 67 71 75 76 77 77 77 79 82 87 96 106 115 120 123 125 127 127 128 128 128 131 135 138 140 142 145 145 145 145 145 145 145 145 145 144 145 148 151 154 155 155 154 153 150 148 146 144 143 143 145 146 146 145 145
30 27 3 316 284 266 254 198 156 154 135 96 65 32 28 30 28 26 29 32 33 33 34 33 36 41 46 52 59 66 70 74 77 79 81 81 81 81 81 82 86 94 104 114 122 128 130 131 133 134 135 137 141 145 146 147 147 146 145 145 146 147 147 146 145 146 150 155 158 158 158 157 154 152 151 148 146 145 145 146 147 148 148 147 146
39 36 33 34 32 356 308 254 177 161 140 116 100 74 49 39 34 32 33 35 36 36 35 35 36 39 42 46 52 58 66 74 81 85 87 87 87 87 87 87 87 88 93 102 111 119 126 131 135 138 140 142 144 145 146 145 145 145 145 146 147 147 146 147 150 154 159 161 161 160 159 157 154 153 153 150 148 147 147 147 149 150 148 146 145
43 39 38 44 46 34 17 44 124 140 136 119 100 85 69 52 42 37 32 30 32 33 33 34 37 38 39 43 46 50 56 65 74 84 92 96 96 95 95 95 96 95 96 98 102 107 113 120 126 132 136 139 141 143 144 145 146 146 147 149 150 151 152 157 161 162 162 162 161 161 159 157 156 155 153 150 148 148 148 149 150 150 148 146 145
45 44 41 42 44 43 46 61 109 143 140 124 102 89 81 67 53 47 39 34 36 38 35 35 38 38 38 40 43 46 50 56 64 75 87 97 104 107 107 105 106 107 108 108 108 109 111 116 121 126 130 135 138 141 144 146 147 149 151 153 154 157 160 163 165 164 161 160 160 160 160 160 158 156 154 152 151 151 151 152 152 152 149 147 145
46 49 49 47 46 47 49 56 100 146 145 131 113 102 92 72 55 52 48 42 42 43 42 40 41 41 39 41 44 47 49 53 58 66 77 89 102 112 119 120 120 119 120 120 120 119 118 121 124 128 133 138 142 145 148 151 153 156 156 156 157 160 162 163 164 164 160 158 158 161 163 162 160 157 156 155 154 153 153 153 153 152 150 148 147
44 48 51 52 54 56 56 58 75 132 150 141 131 128 122 88 51 48 54 48 44 45 45 42 42 43 46 47 48 52 55 57 59 63 69 78 92 106 118 126 131 132 132 131 131 130 130 130 131 134 138 144 149 153 156 160 162 162 162 160 160 162 162 162 163 163 161 159 161 163 164 163 163 162 159 157 155 154 154 154 153 152 150 149 148
Height
1497 1497 1498 1498 1498 1498 1498 1497 1497 1496 1495 1494 1493 1492 1491 1490 1489 1488 1487 1487 1486 1486 1485 1484 1482 1481 1480 1480 1479 1479 1478 1478 1479 1479 1479 1479 1480 1481 1482 1483 1484 1485 1486 1487 1487 1488 1488 1489 1490 1492 1493 1494 1495 1498 1501 1504 1506 1509 1510 1512 1514 1515 1516 1517 1519 1520 1520 1522 1524 1523 1523 1526 1529 1531 1533 1535 1537 1538 1539 1542 1544 1545 1546 1548 1550
1494 1495 1495 1495 1495 1495 1495 1494 1494 1493 1492 1491 1490 1489 1488 1487 1486 1485 1483 1483 1482 1481 1480 1479 1479 1477 1476 1476 1475 1474 1474 1474 1474 1474 1474 1474 1475 1476 1477 1478 1479 1480 1481 1482 1483 1484 1484 1484 1485 1487 1489 1489 1491 1493 1495 1498 1501 1503 1505 1508 1510 1511 1513 1514 1516 1518 1517 1518 1520 1519 1520 1523 1525 1527 1530 1533 1535 1535 1537 1540 1541 1542 1544 1546 1548
1492 1492 1492 1493 1493 1492 1492 1492 1491 1490 1489 1488 1487 1486 1485 1484 1483 1482 1480 1479 1478 1477 1476 1475 1474 1473 1472 1471 1470 1470 1469 1469 1468 1469 1469 1469 1470 1470 1471 1473 1474 1474 1476 1476 1478 1479 1480 1480 1480 1482 1484 1485 1486 1488 1490 1492 1495 1498 1500 1503 1505 1508 1510 1511 1513 1514 1514 1514 1515 1515 1517 1520 1521 1524 1528 1530 1532 1533 1535 1537 1538 1540 1542 1544 1545
1490 1490 1490 1490 1490 1490 1490 1489 1488 1487 1486 1485 1484 1483 1482 1481 1480 1479 1477 1475 1474 1473 1472 1471 1470 1469 1468 1466 1465 1465 1464 1463 1463 1463 1463 1464 1464 1465 1466 1467 1468 1469 1470 1471 1473 1474 1475 1475 1475 1477 1479 1480 1481 1483 1484 1485 1488 1492 1495 1498 1500 1503 1506 1508 1510 1511 1510 1511 1512 1512 1514 1516 1518 1521 1524 1526 1528 1531 1533 1534 1535 1537 1539 1540 1542
1487 1488 1488 1488 1488 1487 1487 1486 1485 1484 1483 1482 1481 1480 1479 1478 1477 1475 1473 1471 1470 1469 1468 1466 1465 1464 1463 1462 1461 1459 1459 1458 1458 1457 1457 1458 1458 1459 1460 1461 1461 1463 1464 1465 1466 1468 1469 1470 1471 1472 1474 1474 1475 1477 1479 1480 1483 1487 1490 1492 1495 1498 1501 1504 1506 1507 1507 1507 1509 1509 1510 1513 1515 1518 1520 1523 1525 1528 1530 1531 1533 1534 1535 1537 1539
1485 1485 1485 1485 1485 1484 1484 1483 1482 1481 1480 1479 1478 1477 1476 1474 1473 1471 1469 1467 1466 1465 1463 1462 1461 1459 1457 1456 1455 1454 1453 1452 1452 1451 1451 1452 1452 1452 1453 1455 1456 1457 1458 1459 1460 1462 1463 1464 1465 1467 1469 1468 1468 1471 1474 1476 1478 1480 1483 1486 1490 1493 1496 1498 1501 1503 1503 1504 1505 1505 1507 1509 1512 1514 1518 1520 1522 1524 1526 1528 1530 1532 1533 1535 1537
1482 1483 1483 1482 1482 1481 1480 1479 1478 1477 1476 1475 1474 1473 1472 1470 1468 1467 1465 1463 1461 1460 1458 1457 1455 1453 1452 1450 1449 1448 1447 1446 1445 1445 1445 1445 1446 1446 1447 1448 1450 1451 1452 1453 1454 1455 1456 1458 1459 1461 1462 1462 1463 1465 1468 1471 1472 1474 1476 1480 1485 1488 1491 1493 1496 1498 1499 1500 1501 1501 1503 1506 1509 1512 1515 1517 1520 1521 1523 1525 1527 1529 1531 1532 1534
1480 1480 1480 1479 1479 1478 1477 1476 1475 1474 1473 1472 1471 1469 1468 1466 1464 1463 1461 1459 1457 1455 1453 1451 1450 1448 1446 1445 1443 1442 1441 1440 1439 1439 1439 1439 1440 1440 1441 1442 1443 1445 1446 1447 1448 1449 1450 1451 1453 1454 1455 1457 1458 1460 1463 1465 1468 1470 1471 1475 1480 1483 1485 1488 1491 1493 1495 1495 1496 1498 1500 1502 1505 1509 1511 1512 1514 1517 1519 1522 1524 1526 1527 1530 1532
1477 1477 1477 1476 1475 1474 1473 1472 1471 1471 1470 1469 1467 1466 1464 1462 1460 1459 1457 1454 1452 1450 1448 1446 1444 1442 1441 1439 1437 1436 1435 1433 1433 1433 1433 1434 1434 1435 1435 1436 1437 1438 1440 1442 1443 1443 1444 1445 1447 1448 1449 1451 1453 1455 1457 1461 1464 1466 1467 1470 1475 1478 1480 1483 1485 1488 1490 1491 1492 1494 1496 1498 1501 1503 1505 1507 1510 1513 1516 1519 1521 1523 1525 1527 1529
1475 1474 1474 1473 1472 1471 1470 1469 1469 1468 1467 1465 1464 1462 1461 1459 1456 1454 1452 1450 1448 1445 1443 1441 1439 1437 1435 1433 1431 1430 1428 1426 1426 1427 1427 1428 1429 1430 1430 1431 1432 1433 1434 1436 1437 1438 1439 1440 1441 1442 1444 1446 1449 1450 1452 1455 1459 1461 1463 1465 1469 1472 1475 1477 1480 1482 1485 1486 1487 1489 1491 1494 1496 1499 1502 1505 1508 1510 1512 1514 1516 1519 1521 1524 1526
1472 1472 1471 1470 1469 1468 1467 1467 1466 1465 1463 1462 1461 1459 1457 1455 1452 1450 1447 1445 1443 1441 1438 1436 1434 1432 1429 1427 1425 1423 1421 1419 1419 1420 1421 1422 1423 1424 1425 1426 1427 1427 1428 1430 1431 1432 1434 1435 1436 1438 1439 1441 1444 1445 1447 1450 1453 1456 1459 1461 1464 1467 1469 1472 1475 1477 1480 1482 1482 1485 1488 1490 1493 1497 1500 1503 1504 1505 1507 1509 1511 1513 1516 1519 1521
1469 1469 1468 1467 1466 1465 1465 1464 1463 1462 1460 1459 1458 1456 1454 1451 1448 1445 1443 1440 1438 1436 1433 1431 1428 1426 1424 1421 1419 1417 1415 1413 1413 1413 1414 1415 1416 1417 1419 1420 1421 1422 1423 1424 1426 1427 1429 1430 1431 1433 1433 1435 1438 1441 1442 1445 1448 1451 1454 1456 1459 1463 1465 1468 1470 1472 1475 1477 1478 1481 1484 1487 1490 1494 1496 1499 1500 1501 1504 1506 1507 1509 1512 1515 1517
1467 1466 1465 1464 1463 1462 1462 1461 1460 1459 1457 1456 1454 1453 1451 1447 1444 1441 1438 1436 1433 1430 1428 1425 1422 1420 1418 1415 1413 1411 1409 1407 1407 1407 1407 1408 1410 1411 1412 1412 1413 1415 1417 1418 1420 1422 1423 1425 1426 1427 1428 1430 1433 1436 1438 1440 1443 1446 1449 1451 1454 1458 1461 1464 1467 1469 1471 1473 1474 1477 1481 1483 1486 1490 1493 1495 1496 1497 1499 1501 1503 1506 1509 1512 1514
1464 1463 1462 1461 1460 1460 1459 1458 1457 1456 1454 1453 1452 1450 1447 1443 1440 1437 1433 1430 1427 1424 1421 1418 1415 1413 1411 1409 1406 1404 1402 1401 1401 1401 1401 1402 1403 1404 1405 1405 1406 1407 1409 1411 1414 1416 1418 1419 1421 1421 1423 1425 1428 1430 1433 1436 1438 1442 1445 1446 1448 1452 1456 1459 1463 1466 1468 1470 1471 1474 1477 1480 1483 1487 1490 1491 1492 1493 1495 1496 1499 1502 1506 1508 1510
1462 1461 1459 1459 1458 1457 1457 1456 1454 1453 1452 1450 1449 1446 1443 1439 1435 1432 1428 1425 1421 1418 1414 1411 1408 1406 1404 1402 1399 1396 1394 1394 1394 1394 1394 1395 1397 1398 1398 1398 1399 1399 1401 1404 1406 1409 1411 1413 1415 1416 1418 1420 1422 1425 1428 1431 1433 1436 1440 1442 1443 1447 1451 1454 1457 1461 1464 1466 1469 1471 1474 1477 1480 1483 1486 1488 1489 1490 1492 1494 1497 1500 1503 1505 1507
1459 1458 1457 1456 1456 1455 1455 1453 1452 1450 1449 1448 1446 1443 1439 1435 1431 1428 1424 1420 1416 1412 1408 1405 1402 1399 1397 1396 1393 1390 1388 1387 1387 1387 1387 1388 1390 1391 1391 1391 1392 1392 1394 1396 1399 1401 1404 1407 1409 1411 1413 1415 1417 1420 1423 1427 1429 1431 1435 1437 1438 1442 1446 1448 1451 1456 1458 1462 1465 1468 1471 1475 1478 1480 1482 1484 1485 1487 1491 1493 1495 1499 1501 1503 1506
1457 1456 1455 1454 1454 1453 1452 1451 1449 1448 1447 1445 1442 1439 1435 1432 1428 1424 1420 1415 1411 1407 1403 1400 1396 1393 1391 1389 1387 1383 1381 1380 1380 1379 1379 1381 1382 1383 1383 1384 1385 1386 1387 1389 1391 1394 1397 1399 1403 1405 1407 1410 1412 1415 1418 1422 1425 1426 1429 1433 1434 1437 1441 1443 1447 1451 1454 1458 1463 1465 1468 1472 1474 1476 1478 1480 1482 1485 1488 1490 1492 1496 1498 1500 1503
1455 1454 1453 1452 1451 1450 1450 1448 1446 1445 1444 1441 1438 1435 1431 1428 1424 1420 1416 1411 1407 1403 1399 1395 1391 1388 1385 1382 1380 1377 1373 1372 1372 1371 1371 1373 1375 1376 1377 1378 1379 1379 1381 1382 1385 1387 1389 1392 1396 1400 1402 1405 1407 1410 1413 1417 1421 1422 1424 1428 1431 1433 1436 1439 1443 1447 1450 1454 1459 1462 1465 1468 1470 1472 1475 1477 1479 1481 1483 1486 1489 1491 1494 1498 1501
1453 1452 1451 1449 1448 1447 1447 1445 1444 1442 1441 1438 1434 1431 1428 1425 1421 1416 1412 1407 1402 1398 1394 1390 1386 1382 1379 1376 1373 1370 1366 1364 1364 1363 1363 1365 1367 1369 1371 1372 1372 1373 1375 1377 1379 1381 1383 1387 1390 1393 1397 1401 1403 1404 1408 1412 1415 1416 1420 1424 1427 1430 1433 1436 1440 1443 1446 1450 1454 1457 1461 1463 1465 1468 1471 1474 1476 1478 1480 1483 1486 1488 1492 1495 1498
1451 1450 1448 1447 1446 1445 1444 1443 1441 1440 1437 1434 1431 1428 1425 1421 1416 1412 1407 1402 1398 1394 1390 1385 1380 1375 1373 1370 1366 1363 1360 1357 1356 1356 1356 1357 1359 1362 1364 1365 1366 1368 1371 1373 1375 1376 1379 1382 1385 1388 1392 1395 1397 1399 1403 1407 1409 1412 1415 1419 1422 1426 1430 1433 1436 1439 1442 1447 1450 1453 1456 1458 1461 1465 1468 1470 1472 1474 1477 1481 1484 1487 1490 1492 1495
1448 1447 1446 1445 1444 1443 1442 1440 1438 1437 1435 1431 1428 1425 1422 1417 1413 1408 1403 1399 1395 1390 1385 1380 1375 1370 1367 1364 1360 1357 1354 1351 1350 1350 1350 1351 1353 1355 1357 1358 1361 1364 1366 1368 1370 1372 1375 1378 1380 1383 1387 1390 1392 1396 1400 1403 1406 1408 1412 1416 1420 1424 1427 1430 1433 1435 1439 1443 1446 1449 1452 1455 1458 1463 1466 1467 1469 1471 1474 1478 1482 1484 1487 1489 1493
1446 1446 1445 1444 1442 1441 1439 1438 1436 1434 1432 1429 1426 1423 1419 1414 1410 1405 1401 1396 1391 1385 1379 1374 1370 1365 1362 1359 1355 1351 1348 1346 1344 1344 1344 1345 1346 1349 1350 1352 1356 1360 1362 1364 1366 1368 1370 1373 1376 1378 1382 1385 1389 1393 1396 1400 1403 1405 1409 1413 1418 1422 1424 1427 1429 1432 1435 1439 1442 1445 1449 1452 1456 1460 1462 1464 1466 1468 1471 1475 1478 1480 1483 1487 1491
1445 1444 1443 1442 1440 1439 1437 1436 1435 1432 1430 1427 1424 1420 1416 1411 1407 1403 1399 1393 1386 1380 1375 1370 1365 1361 1357 1353 1349 1346 1343 1341 1339 1338 1339 1339 1340 1343 1345 1348 1352 1355 1357 1360 1362 1364 1367 1369 1371 1374 1378 1382 1386 1389 1393 1397 1400 1402 1406 1410 1415 1419 1421 1423 1426 1428 1431 1434 1438 1441 1445 1449 1453 1457 1460 1461 1463 1465 1469 1472 1476 1479 1482 1485 1487
1443 1443 1442 1440 1439 1437 1436 1434 1433 1431 1428 1425 1422 1418 1413 1409 1405 1401 1396 1391 1384 1378 1373 1367 1362 1357 1353 1349 1345 1341 1339 1337 1335 1334 1334 1335 1336 1338 1341 1344 1348 1350 1353 1356 1359 1361 1363 1365 1367 1371 1375 1379 1383 1386 1390 1393 1396 1400 1404 1407 1411 1414 1417 1419 1422 1425 1427 1431 1434 1438 1442 1445 1450 1454 1456 1458 1460 1463 1467 1471 1475 1478 1481 1484 1487
1443 1442 1441 1439 1438 1436 1435 1433 1431 1429 1426 1424 1420 1416 1411 1407 1403 1399 1394 1389 1383 1378 1372 1366 1361 1356 1351 1346 1342 1339 1336 1334 1332 1331 1331 1331 1332 1334 1337 1340 1344 1347 1350 1353 1355 1358 1360 1361 1364 1369 1373 1376 1380 1383 1386 1389 1393 1397 1401 1404 1407 1410 1413 1416 1419 1422 1424 1428 1432 1436 1439 1443 1446 1450 1453 1455 1457 1461 1465 1469 1473 1477 1480 1484 1486
1442 1441 1440 1438 1437 1435 1433 1431 1429 1427 1425 1422 1418 1414 1410 1406 1402 1397 1392 1387 1382 1377 1371 1366 1360 1355 1350 1345 1341 1337 1334 1332 1330 1329 1328 1329 1329 1330 1333 1337 1340 1344 1347 1350 1352 1355 1357 1359 1362 1366 1370 1373 1377 1380 1383 1387 1390 1394 1398 1400 1403 1406 1409 1412 1415 1418 1421 1425 1430 1434 1437 1440 1443 1448 1452 1455 1458 1461 1465 1469 1473 1476 1480 1482 1484
1441 1440 1439 1437 1436 1434 1432 1430 1427 1425 1423 1420 1417 1413 1409 1405 1400 1396 1391 1386 1381 1375 1370 1364 1358 1352 1348 1344 1340 1336 1333 1331 1329 1328 1327 1327 1327 1328 1330 1333 1337 1340 1344 1347 1349 1352 1354 1357 1360 1363 1367 1371 1374 1378 1381 1384 1387 1391 1394 1396 1399 1403 1406 1409 1412 1416 1419 1423 1427 1431 1435 1438 1443 1447 1451 1454 1458 1462 1466 1469 1472 1475 1478 1480 1483
1440 1439 1438 1437 1435 1433 1431 1428 1426 1424 1422 1419 1415 1412 1407 1403 1399 1395 1390 1385 1380 1375 1369 1363 1357 1352 1347 1343 1339 1335 1332 1330 1328 1327 1326 1326 1327 1328 1329 1331 1334 1337 1341 1344 1346 1349 1352 1354 1357 1360 1364 1367 1370 1374 1377 1380 1384 1387 1390 1393 1397 1401 1404 1407 1410 1413 1416 1420 1425 1430 1435 1439 1443 1445 1449 1453 1457 1461 1465 1468 1471 1474 1476 1479 1481
1439 1439 1437 1436 1435 1432 1430 1428 1425 1423 1420 1417 1414 1411 1406 1402 1398 1394 1390 1386 1382 1377 1371 1365 1360 1354 1349 1344 1339 1335 1332 1329 1328 1327 1326 1326 1326 1328 1330 1331 1333 1336 1338 1341 1343 1346 1349 1351 1354 1357 1360 1364 1367 1370 1373 1377 1381 1385 1388 1391 1394 1399 1403 1405 1408 1411 1415 1419 1424 1429 1434 1438 1441 1444 1448 1452 1455 1460 1464 1467 1471 1473 1476 1478 1480
1439 1438 1437 1436 1434 1431 1429 1427 1425 1422 1419 1416 1413 1410 1405 1402 1398 1393 1389 1386 1382 1378 1373 1368 1362 1356 1351 1346 1342 1337 1333 1330 1328 1327 1327 1327 1327 1328 1330 1332 1333 1335 1336 1338 1341 1344 1346 1348 1351 1354 1358 1361 1364 1367 1370 1374 1379 1383 1386 1390 1394 1398 1401 1404 1408 1411 1415 1419 1423 1428 1433 1437 1440 1443 1447 1451 1454 1459 1463 1467 1470 1472 1475 1477 1480
1439 1438 1437 1436 1433 1430 1429 1427 1424 1421 1418 1415 1412 1408 1404 1401 1398 1394 1390 1385 1381 1378 1374 1369 1364 1358 1353 1348 1344 1339 1334 1331 1328 1327 1327 1328 1328 1328 1330 1332 1333 1334 1335 1337 1339 1342 1344 1347 1349 1352 1356 1359 1361 1364 1368 1373 1377 1381 1385 1390 1395 1398 1400 1403 1407 1410 1413 1418 1422 1426 1433 1438 1440 1443 1447 1450 1454 1458 1462 1466 1470 1472 1474 1477 1479
1439 1438 1437 1435 1432 1430 1429 1426 1423 1421 1418 1415 1412 1408 1404 1400 1396 1393 1390 1386 1382 1378 1374 1370 1365 1360 1356 1351 1345 1340 1336 1332 1330 1328 1328 1329 1330 1330 1331 1332 1334 1335 1336 1337 1339 1341 1343 1345 1348 1351 1354 1357 1360 1363 1367 1371 1376 1380 1384 1388 1393 1396 1399 1402 1407 1410 1413 1417 1421 1426 1433 1438 1440 1443 1447 1451 1454 1458 1462 1466 1469 1472 1474 1476 1479
1438 1437 1436 1434 1432 1431 1429 1426 1424 1421 1417 1414 1412 1409 1405 1401 1397 1393 1389 1386 1382 1379 1375 1371 1367 1362 1358 1353 1348 1343 1339 1335 1332 1331 1330 1331 1331 1332 1332 1333 1335 1336 1337 1338 1340 1341 1343 1345 1347 1350 1353 1356 1360 1364 1368 1371 1375 1380 1383 1386 1390 1395 1400 1404 1407 1411 1415 1418 1422 1428 1434 1438 1441 1444 1449 1453 1456 1459 1462 1465 1468 1471 1473 1476 1479
1437 1437 1435 1434 1433 1431 1429 1426 1424 1421 1418 1415 1412 1409 1406 1403 1399 1395 1390 1386 1382 1379 1376 1372 1368 1364 1359 1355 1350 1347 1343 1339 1337 1335 1334 1334 1334 1334 1334 1335 1336 1337 1338 1339 1341 1342 1343 1345 1347 1349 1353 1356 1360 1364 1367 1371 1375 1379 1382 1386 1391 1396 1400 1404 1408 1412 1416 1420 1425 1431 1436 1439 1442 1446 1450 1454 1457 1460 1463 1465 1468 1471 1473 1476 1479
1437 1436 1435 1433 1432 1431 1429 1427 1424 1421 1418 1415 1412 1409 1406 1403 1401 1397 1392 1388 1384 1380 1377 1374 1370 1366 1362 1357 1354 1350 1347 1344 1342 1340 1338 1337 1337 1337 1337 1337 1338 1339 1340 1342 1342 1343 1345 1346 1347 1349 1353 1357 1360 1364 1367 1371 1375 1377 1381 1386 1392 1396 1400 1405 1410 1416 1420 1424 1429 1433 1437 1441 1446 1449 1452 1455 1458 1460 1462 1465 1468 1471 1474 1477 1480
1436 1436 1435 1433 1432 1431 1429 1427 1424 1421 1418 1415 1412 1410 1407 1404 1402 1399 1395 1391 1387 1383 1379 1376 1372 1368 1364 1361 1357 1354 1351 1348 1346 1344 1343 1341 1341 1340 1340 1340 1340 1341 1342 1343 1345 1346 1347 1348 1349 1352 1355 1359 1362 1365 1368 1371 1375 1379 1383 1388 1392 1396 1402 1408 1414 1419 1423 1427 1431 1435 1440 1444 1449 1452 1454 1456 1458 1460 1462 1465 1468 1471 1474 1477 1480
1436 1436 1435 1434 1432 1431 1429 1427 1424 1422 1418 1415 1413 1411 1408 1406 1404 1401 1397 1394 1390 1386 1382 1378 1374 1370 1367 1363 1360 1357 1355 1352 1350 1348 1347 1346 1345 1344 1344 1343 1343 1344 1345 1346 1347 1348 1349 1351 1353 1355 1358 1361 1363 1366 1368 1372 1376 1381 1386 1390 1394 1400 1407 1413 1418 1422 1425 1429 1433 1438 1443 1448 1451 1453 1455 1456 1458 1460 1463 1466 1469 1472 1475 1478 1481
1436 1435 1435 1433 1432 1431 1429 1427 1425 1422 1419 1417 1415 1412 1410 1407 1405 1403 1400 1397 1393 1389 1386 1381 1377 1373 1370 1367 1364 1361 1358 1355 1353 1351 1350 1349 1349 1349 1348 1347 1347 1348 1349 1350 1350 1350 1352 1354 1356 1358 1361 1363 1365 1367 1370 1373 1377 1382 1388 1394 1400 1405 1411 1416 1420 1424 1428 1432 1437 1442 1446 1450 1452 1454 1456 1457 1459 1461 1464 1467 1470 1473 1476 1479 1482
1435 1434 1434 1433 1432 1431 1430 1428 1425 1423 1421 1419 1416 1414 1411 1409 1407 1405 1402 1399 1396 1393 1389 1385 1382 1378 1374 1371 1368 1365 1362 1359 1357 1356 1354 1353 1353 1353 1352 1352 1352 1353 1353 1353 1353 1354 1356 1357 1359 1362 1365 1367 1369 1372 1374 1377 1381 1387 1393 1399 1404 1408 1413 1417 1421 1426 1431 1436 1440 1444 1448 1451 1453 1455 1457 1459 1461 1463 1466 1469 1472 1474 1476 1479 1481
1435 1435 1433 1433 1432 1430 1429 1428 1426 1424 1422 1420 1418 1416 1413 1411 1409 1407 1404 1402 1399 1397 1393 1390 1386 1383 1379 1376 1372 1369 1367 1365 1363 1362 1360 1359 1358 1358 1357 1356 1356 1357 1357 1357 1358 1359 1360 1362 1365 1367 1369 1371 1374 1376 1379 1382 1387 1392 1398 1403 1406 1410 1415 1419 1424 1428 1433 1438 1442 1445 1448 1451 1454 1456 1458 1460 1462 1465 1467 1470 1472 1474 1477 1479 1481
1435 1434 1433 1432 1431 1430 1429 1428 1426 1425 1423 1421 1419 1417 1415 1412 1410 1409 1407 1404 1402 1400 1397 1394 1391 1388 1385 1381 1378 1375 1373 1371 1370 1368 1366 1365 1364 1363 1362 1362 1362 1362 1362 1363 1364 1364 1365 1367 1370 1372 1374 1376 1379 1381 1384 1387 1391 1395 1401 1406 1410 1413 1418 1422 1427 1432 1436 1440 1443 1447 1450 1453 1455 1457 1459 1462 1464 1466 1468 1470 1473 1475 1477 1479 1481
1433 1433 1432 1431 1431 1430 1429 1428 1426 1425 1424 1422 1420 1418 1416 1414 1412 1411 1409 1407 1405 1403 1401 1398 1395 1393 1390 1387 1384 1381 1379 1377 1375 1373 1371 1370 1370 1369 1368 1368 1368 1369 1369 1370 1370 1371 1372 1373 1375 1377 1378 1381 1383 1385 1388 1391 1394 1398 1403 1408 1412 1416 1420 1425 1430 1434 1438 1442 1445 1448 1451 1454 1457 1459 1461 1463 1465 1467 1469 1471 1473 1475 1477 1479 1481
1431 1431 1431 1431 1430 1430 1429 1427 1426 1426 1424 1423 1421 1419 1417 1415 1414 1413 1411 1409 1407 1405 1404 1402 1400 1397 1395 1392 1390 1387 1385 1383 1381 1379 1377 1376 1375 1374 1374 1374 1374 1375 1375 1375 1376 1378 1379 1380 1381 1382 1383 1386 1388 1391 1393 1396 1399 1403 1407 1411 1414 1418 1422 1427 1432 1436 1440 1443 1446 1449 1453 1456 1458 1461 1463 1464 1466 1468 1470 1472 1474 1476 1478 1480 1481
1430 1430 1430 1430 1430 1429 1428 1427 1426 1425 1424 1423 1422 1420 1418 1417 1416 1415 1413 1412 1410 1408 1406 1405 1403 1401 1399 1397 1395 1393 1391 1388 1386 1385 1383 1382 1381 1380 1379 1379 1379 1380 1381 1381 1382 1383 1384 1385 1386 1388 1389 1391 1394 1397 1399 1402 1405 1408 1411 1414 1418 1422 1426 1430 1434 1438 1441 1444 1448 1451 1455 1458 1460 1462 1464 1466 1467 1469 1470 1472 1474 1476 1478 1480 1481
1431 1431 1430 1430 1429 1429 1428 1426 1426 1425 1424 1424 1423 1422 1420 1419 1418 1417 1415 1414 1412 1411 1409 1407 1406 1404 1403 1401 1400 1398 1396 1394 1392 1391 1389 1388 1387 1387 1386 1386 1386 1385 1385 1386 1388 1389 1390 1391 1392 1394 1395 1398 1400 1403 1405 1408 1411 1413 1416 1419 1422 1426 1430 1433 1436 1440 1443 1446 1450 1453 1456 1459 1461 1463 1465 1466 1468 1469 1471 1473 1475 1477 1478 1480 1481
1432 1431 1430 1429 1429 1428 1428 1427 1427 1426 1425 1425 1424 1424 1423 1422 1420 1419 1417 1416 1414 1413 1412 1410 1408 1407 1405 1404 1403 1402 1401 1399 1398 1396 1395 1394 1394 1393 1393 1392 1392 1391 1391 1392 1393 1395 1396 1398 1399 1401 1402 1404 1407 1409 1411 1413 1415 1417 1420 1424 1427 1430 1433 1436 1439 1442 1445 1448 1451 1454 1457 1459 1461 1463 1465 1467 1468 1470 1472 1474 1475 1477 1478 1480 1481
1432 1431 1430 1429 1429 1428 1428 1427 1427 1427 1426 1426 1425 1425 1425 1423 1422 1421 1419 1418 1416 1415 1414 1413 1411 1410 1408 1407 1406 1405 1404 1403 1402 1401 1400 1400 1399 1399 1399 1399 1398 1398 1398 1399 1400 1401 1403 1404 1406 1407 1409 1411 1412 1414 1416 1418 1420 1422 1425 1428 1431 1433 1436 1439 1441 1444 1447 1450 1452 1455 1458 1460 1462 1463 1465 1467 1468 1470 1472 1474 1476 1477 1478 1480 1481
1434 1433 1432 1430 1430 1429 1428 1428 1427 1427 1427 1427 1426 1426 1426 1425 1424 1423 1422 1420 1419 1418 1417 1416 1414 1413 1411 1410 1409 1407 1406 1406 1405 1405 1404 1404 1404 1404 1404 1404 1405 1405 1405 1406 1407 1408 1409 1410 1411 1413 1414 1416 1417 1419 1420 1422 1424 1427 1429 1431 1434 1436 1438 1441 1443 1445 1448 1451 1453 1456 1458 1460 1462 1464 1465 1467 1469 1471 1473 1474 1476 1477 1478 1480 1482
1435 1434 1433 1432 1431 1430 1429 1428 1428 1428 1428 1428 1428 1427 1427 1426 1426 1425 1424 1423 1422 1421 1420 1418 1417 1416 1415 1413 1412 1411 1410 1409 1408 1407 1407 1407 1407 1408 1409 1409 1410 1411 1411 1412 1413 1413 1414 1415 1416 1417 1419 1420 1421 1423 1424 1426 1428 1430 1432 1434 1436 1438 1440 1442 1444 1446 1449 1451 1454 1456 1458 1460 1462 1464 1466 1467 1469 1471 1473 1474 1476 1477 1479 1480 1481
1436 1435 1434 1433 1432 1431 1430 1429 1429 1429 1429 1429 1429 1429 1428 1428 1427 1427 1426 1425 1424 1423 1422 1421 1420 1419 1418 1417 1416 1414 1414 1413 1412 1411 1410 1410 1410 1411 1412 1412 1413 1414 1415 1416 1417 1417 1418 1419 1420 1421 1422 1423 1425 1426 1428 1429 1431 1432 1434 1436 1437 1439 1441 1443 1445 1447 1449 1451 1454 1456 1459 1461 1463 1464 1466 1468 1469 1471 1473 1474 1476 1477 1479 1480 1481
1438 1436 1435 1434 1433 1433 1432 1430 1430 1429 1429 1429 1429 1429 1429 1429 1429 1428 1427 1427 1426 1425 1424 1423 1423 1422 1421 1420 1419 1418 1417 1416 1415 1415 1414 1414 1414 1414 1414 1415 1415 1416 1417 1418 1419 1420 1421 1421 1422 1423 1424 1425 1427 1428 1429 1431 1432 1434 1435 1437 1439 1440 1442 1444 1446 1448 1450 1452 1454 1456 1459 1461 1463 1464 1466 1468 1470 1471 1473 1474 1476 1477 1479 1480 1481